www.pogodaiklimat.ru

АРХИВ ПОГОДЫ в Омахе

Время (UTC), дата Ветер
(напр.,м/с)
 
Видим.   Явления Облачность Т
(С)
Тd
(С)
f
(%)
Тe
(С)
Тes
(С)
Комфортность

P
(гПа)

Po
(гПа)
Тmin
(С)
Tmax
(С)
R
(мм)
SD
(см)
23:52 17.07 В  16 км    5/0 4500 м
[средняя верхняя] 
+25.6  +17.8  62  +30  +31  душно  1016.9  982.2         
00:52 18.07 штиль  16 км    5/0 4500 м
[средняя верхняя] 
+24.4  +18.9  71  +29  +30  душно  1017.3  982.2         
01:52 18.07 штиль  16 км    5/0 7500 м
[верхняя] 
+22.8  +19.4  81  +29  +29  очень
душно 
1017.3  982.6         
02:52 18.07 В  16 км    2/0 7500 м
[верхняя] 
+22.2  +19.4  84  +28  +28  душно  1017.7  982.6         
03:52 18.07 ЮВ  16 км    2/0 7500 м
[верхняя] 
+21.7  +18.9  84  +27  +27  душно  1017.9  982.9         
04:52 18.07 штиль  16 км    5/0 2400 м
[средняя верхняя] 
+22.0  +19.0  83  +27  +27  душно  1018.4  983.2  +21.7       
05:52 18.07 штиль  16 км    2/0 2400 м
[средняя] 
+20.6  +18.9  90  +24  +24  комфорт  1017.8  982.9         
06:52 18.07 С  16 км    ясно  +19.4  +18.3  93  +22  +22  комфорт  1017.5  982.6         
07:52 18.07 С  16 км    ясно  +18.9  +17.8  93  +21  +21  комфорт  1017.2  982.2         
08:52 18.07 С  16 км    2/0 2400 м
[средняя] 
+18.9  +17.8  93  +21  +21  комфорт  1016.9  981.9         
09:52 18.07 С  16 км    5/0 2400 м
[средняя] 
+18.9  +17.2  90  +21  +21  комфорт  1016.9  981.9         
10:52 18.07 С  16 км    2/2 1500 м
[средняя] 
+19.0  +18.0  94  +21  +21  комфорт  1017.3  982.2  +18.9  +21.7     
11:52 18.07 штиль  16 км    5/0 2100 м
[средняя] 
+21.7  +18.3  81  +26  +27  душно  1017.4  982.6         
12:52 18.07 В  16 км    5/0 2100 м
[средняя] 
+23.3  +18.3  73  +29  +31  душно  1017.2  982.2         
13:52 18.07 ЮВ  16 км    8/2 1200 м
[средняя верхняя] 
+24.4  +17.8  67  +29  +30  душно  1016.7  981.9         
14:52 18.07 В  16 км    8/2 1200 м
[средняя верхняя] 
+26.7  +18.3  60  +31  +34  душно  1016.0  981.3         
15:52 18.07 ЮВ  16 км    8/2 1050 м
[средняя верхняя] 
+28.0  +17.0  51  +32  +37  душно  1016.1  981.3         
16:52 18.07 ЮВ  6
{9} 
16 км    8/5 1050 м
[средняя верхняя] 
+28.0  +20.0  62  +34  +36  очень
душно 
1015.2  980.6  +19.4  +28.3     
17:52 18.07 ЮВ  16 км    8/5 1050 м
[средняя верхняя] 
+29.0  +19.0  55  +34  +36  очень
душно 
1014.7  980.0         
18:52 18.07 ЮВ  7
{10} 
16 км    8/5 1050 м
[средняя верхняя] 
+29.4  +20.0  57  +36  +37  очень
душно 
1014.3  979.6         
19:52 18.07 ЮВ  16 км    10/5 1050 м
[средняя верхняя] 
+29.4  +19.4  55  +35  +36  очень
душно 
           
20:52 18.07 ЮВ  16 км    8/5 930 м
[средняя] 
+28.3  +20.0  61  +35  +36  очень
душно 
  979.0         
21:52 18.07 ЮВ  16 км    8/2 1050 м
[средняя] 
+28.0  +20.0  62  +34  +35  очень
душно 
1013.1  978.3         
22:52 18.07 ЮВ  16 км    8/5 960 м
[средняя верхняя] 
+27.8  +20.0  63  +34  +34  очень
душно 
1012.7  978.0  +27.8  +29.4     
23:52 18.07 ЮВ  16 км    8/2 1050 м
[средняя верхняя] 
+27.0  +19.0  62  +32  +33  очень
душно 
1012.6  978.0         
00:52 19.07 ЮВ  16 км    8/2 1050 м
[средняя верхняя] 
+26.0  +19.0  65  +31  +31  очень
душно 
1012.2  977.7         
01:52 19.07 ЮВ  16 км    8/0 3600 м
[средняя верхняя] 
+26.0  +19.0  65  +31  +31  очень
душно 
1012.2  977.7         
02:52 19.07 ЮВ  16 км    10/0 7500 м
[верхняя] 
+25.0  +19.4  71  +30  +30  душно  1011.7  977.0         
03:52 19.07 ЮВ  16 км    5/2 870 м
[верхняя] 
+24.4  +19.4  74  +30  +30  очень
душно 
1012.0  977.3         
04:52 19.07 ЮВ  16 км    8/0 3300 м
[средняя] 
+24.0  +19.0  74  +29  +29  душно  1011.3  976.7  +23.9       
05:52 19.07 ЮВ  16 км    10/0 2700 м
[средняя] 
+24.0  +20.0  78  +29  +29  душно  1011.7  977.0         
06:52 19.07 Ю  16 км  слабый дождь  10/0 2400 м
[средняя] 
+23.3  +20.6  85  +31  +31  очень
душно 
1010.5  976.0         
07:52 19.07 Ю  16 км  слабый дождь  10/2 1800 м
[средняя] 
+23.0  +21.0  89  +31  +31  очень
душно 
1009.4  975.1      0.5   
08:52 19.07 Ю  16 км    2/0 5400 м
[средняя] 
+23.0  +19.0  78  +29  +29  очень
душно 
1008.9  974.4         
09:52 19.07 Ю  16 км    2/0 3000 м
[средняя] 
+23.3  +20.6  85  +31  +31  очень
душно 
1008.7  974.4         
10:52 19.07 Ю  11 км    5/2 360 м
[средняя] 
+23.9  +21.7  88  +31  +31  очень
душно 
1008.5  974.1  +22.8  +24.4     
11:52 19.07 Ю  11 км    8/8 360 м  +24.4  +21.7  85  +31  +31  очень
душно 
  973.7         
12:52 19.07 Ю  11 км    5/5 300 м  +26.1  +22.2  79  +34  +35  очень
душно 
1008.0  973.7         
13:52 19.07 З  5
{9} 
16 км    5/5 360 м  +28.9  +22.2  67  +38  +39  очень
душно 
1007.9  973.7         
14:52 19.07 З  16 км    5/5 780 м  +29.4  +20.6  59  +36  +37  очень
душно 
1008.1  973.7         
15:52 19.07 СЗ  7
{11} 
16 км    5/5 900 м  +28.9  +19.4  57  +35  +36  очень
душно 
1008.4  974.1         
16:52 19.07 СЗ  16 км    5/5 1050 м  +28.9  +19.4  57  +35  +37  очень
душно 
1008.4  974.1         
17:52 19.07 СЗ  16 км    5/5 1050 м  +29.4  +20.0  57  +36  +39  очень
душно 
1008.1  973.7         
18:52 19.07 З  16 км    2/2 1200 м
[верхняя] 
+30.0  +18.3  50  +35  +40  очень
душно 
1007.9  973.7         
19:52 19.07 З  4
{9} 
16 км    2/2 1200 м
[верхняя] 
+31.0  +18.0  46  +35  +42  очень
душно 
1007.9  973.4         
20:52 19.07 СЗ  16 км    2/0 7500 м
[верхняя] 
+31.1  +18.3  46  +36  +41  очень
душно 
1007.7  973.4         
21:52 19.07 З   16 км    2/2 1200 м
[верхняя] 
+31.7  +17.8  44  +36  +38  очень
душно 
1007.1  972.8         
22:52 19.07 З   16 км    2/2 1200 м
[верхняя] 
+31.0  +18.0  46  +35  +36  очень
душно 
1007.1  972.8  +28.9       

 

Местоположение метеостанции Eppley Airfield: широта 41.3103 долгота -95.8992 высота над уровнем моря 299 м.

В архиве по умолчанию представлена погода в Омахе за последние 1-2 суток. Обновление информации о фактической погоде в базе происходит ежечасно! Архивные данные за месяц целиком и за предыдущие месяцы Вы можете получить, выбрав интересующий диапазон дат из раскрывающегося списка и нажав кнопку "Ввод!".

Внимание! Архив погоды МЕТАР в базе сайта в настоящее время начинается c 1 января 2013 г. Нет смысла пытаться выбрать более раннюю дату.

Внимание! Время в таблицах - всемирное. Для получения местного времени необходимо прибавить поправку, которая в Омахе равна -6 ч.

Ветер - указаны скорость ветра в м/с и направление, откуда дует ветер: С - северный, СВ - северо-восточный, В - восточный, ЮВ - юго-восточный, Ю - южный, ЮЗ - юго-западный, З - западный, СЗ - северо-западный.
Видимость - горизонтальная дальность видимости в метрах или километрах. При видимости от 1 до 10 км при отсутствии осадков обычно наблюдается дымка, при ухудшении видимости до 1 км и менее - туман. В сухую погоду видимость может ухудшаться дымом, пылью или мглою.
Атмосферные явления - указаны явления, наблюдавшиеся в указанный момент времени.
Облачность - указаны через наклонную черту верхняя и нижняя облачность в баллах и высота нижней границы облаков в метрах. Внимание: облачность, как и прочие метеорологические величины в США измеряются автоматическими метеостанциями. Указанные значения в баллах носят условный характер и показывают процент времени, в течение которого, в среднем, лазерный луч высотомера отражался от облаков обратно.
T - Температура воздуха - температура, измеренная на высоте 2 м над землей.
Td - Температура точки росы - температура, при понижении до которой содержащийся в воздухе водяной пар достигнет насыщения.
f - Относительная влажность воздуха - влажноcть воздуха, измеренная на высоте 2 м над землей.
Te - Эффективная температура - температура, которую ощущает одетый по сезону человек в тени. Характеристика душности погоды. При расчете учитывается влияние влажности воздуха и скорости ветра на теплоощущения человека.
Tes - Эффективная температура на солнце - температура, которую ощущает человек, с поправкой на солнечный нагрев. Характеристика знойности погоды. Зависит от высоты солнца над горизонтом, облачности и скорости ветра. Ночью, в пасмурную погоду, а также при ветре 12 м/с и более поправка равна нулю.
P - Атмосферное давление - приведенное к уровню моря атмосферное давление.
Po - Атмосферное давление - измеренное на уровне метеостанции атмосферное давление.
Tmin - Минимальная температура - минимум температуры воздуха на высоте 2 м над землей.
Tmax - Максимальная температура - максимум температуры воздуха на высоте 2 м над землей.
R - Количество осадков - Количество выпавших осадков за 3 или 6 часов, мм.
SD - Снежный покров - Высота снежного покрова, см.